This demonstration page uses our WeatherBlox Daily Observations layout. Learn more.

Left ArrowRight Arrow

Hourly Observations for April 13, 2016

Temp ( °F °C ) Dew Point ( °F °C ) Humidity (%) Winds ( mph kmh ) Pressure ( in mb ) Visibility ( mi km ) Precip ( " mm )
12:54 am 00:54 Clear 48 8.9 28 -2.2 46 46 S 10 17 30.11 1020 7 11 0.00 0.00
1:54 am 01:54 Hazy 48 8.9 27 -2.8 44 44 S 13 20 30.10 1019 6 10 0.00 0.00
2:54 am 02:54 Hazy 45 7.2 27 -2.8 49 49 S 10 17 30.10 1019 5 8 0.00 0.00
3:54 am 03:54 Hazy 44 6.7 28 -2.2 53 53 S 9 15 30.09 1019 4 6 0.00 0.00
4:54 am 04:54 Hazy 40 4.4 28 -2.2 63 63 S 9 15 30.09 1019 4 6 0.00 0.00
5:54 am 05:54 Clear 41 5 29 -1.7 62 62 S 9 15 30.09 1019 7 11 0.00 0.00
6:54 am 06:54 Hazy 40 4.4 29 -1.7 65 65 S 9 15 30.10 1019 3 4 0.00 0.00
7:39 am 07:39 Hazy 44 6.7 31 -0.6 60 60 S 9 15 30.12 1020 3 5 0.00 0.00
7:54 am 07:54 Hazy 46 7.8 31 -0.6 56 56 S 9 15 30.10 1019 3 5 0.00 0.00
8:54 am 08:54 Hazy 52 11.1 32 0 47 47 S 14 22 30.09 1019 4 6 0.00 0.00
9:54 am 09:54 Hazy 59 15 32 0 36 36 SSW 15 24 30.07 1018 5 8 0.00 0.00
10:54 am 10:54 Sunny with Smoke 65 18.3 35 1.7 33 33 SSW 17 28 30.06 1018 6 10 0.00 0.00
11:54 am 11:54 Sunny 69 20.6 37 2.8 31 31 SSW 14 22 30.05 1018 9 14 0.00 0.00
12:54 pm 12:54 Sunny 73 22.8 38 3.3 28 28 S 20 31 30.03 1017 10 16 0.00 0.00
1:54 pm 13:54 Sunny 75 23.9 37 2.8 25 25 SSW 17 28 30.01 1016 10 16 0.00 0.00
2:54 pm 14:54 Sunny 77 25 37 2.8 24 24 SSW 16 26 30.00 1016 10 16 0.00 0.00
3:54 pm 15:54 Sunny 78 25.6 36 2.2 22 22 SSW 20 31 29.98 1015 10 16 0.00 0.00
4:54 pm 16:54 Sunny 77 25 37 2.8 24 24 S 16 26 29.97 1015 10 16 0.00 0.00
5:54 pm 17:54 Sunny 76 24.4 37 2.8 24 24 SSW 15 24 29.97 1015 10 16 0.00 0.00
6:54 pm 18:54 Sunny 75 23.9 39 3.9 27 27 SSW 12 19 29.96 1015 10 16 0.00 0.00
7:54 pm 19:54 Sunny 64 17.8 41 5 43 43 S 8 13 29.97 1015 10 16 0.00 0.00
8:54 pm 20:54 Clear 63 17.2 39 3.9 41 41 SSE 7 11 29.98 1015 10 16 0.00 0.00
9:54 pm 21:54 Clear 60 15.6 39 3.9 46 46 SSE 8 13 29.99 1016 10 16 0.00 0.00
10:54 pm 22:54 Clear 55 12.8 39 3.9 55 55 S 7 11 29.99 1016 8 13 0.00 0.00
11:54 pm 23:54 Hazy 55 12.8 41 5 59 59 SSE 12 19 29.99 1016 4 6 0.00 0.00

Powered by AerisWeather